To NAV CANADA Home Page Login to a new session Search on AWWS site Feedback and Comments Disclaimer Vers la page française équivalente Tips FAQ What's new on the site To the Forecasts and Observations / NOTAM section To "File a Flight Plan" website Publications and other links Update of the User's profile FIC Telephone Numbers My Weather Data Folder Route Weather Data Regional Weather Data Local Weather Data To the Forecasts and Observations / NOTAM section
Request Generated 10/22/2016 at 07:07:45 UTC . Weather information available at that time is displayed.



LWIS CYLU 220700Z AUTO 23005KT 190V260 M04/M07 A3020=
LWIS CYLU 220600Z AUTO 25005KT 200V300 M03/M07 A3018=
LWIS CYLU 220500Z AUTO 23003KT 210V290 M03/M07 A3018=

CYLU - No TAF is issued for this station

Your time UTC time
Weather data provided by Environment Canada and NAV CANADA